Weather History for Lancaster, SC

Change the Weather History Date:

Friday, February 15, 2013

  Actual Average (KUZA) Record (KUZA)
Temperature  
Mean Temperature 44 °F -  
Max Temperature 62 °F 58 °F 79 °F (1989)
Min Temperature 26 °F 37 °F 18 °F (1960)
Degree Days  
Heating Degree Days 21    
Moisture  
Dew Point 32 °F    
Average Humidity 77    
Maximum Humidity 100    
Minimum Humidity 27    
Precipitation  
Precipitation 0.00 in - - ()
Sea Level Pressure  
Sea Level Pressure 30.03 in    
Wind  
Wind Speed 1 mph (SSW)    
Max Wind Speed 9 mph    
Max Gust Speed -    
Visibility 9 miles    
Events Rain    
Averages and records for this station are not official NWS values.
T = Trace of Precipitation, MM = Missing Value Source: NWS Daily Summary

Daily Weather History Graph

Daily Weather History Graph

Search for Another Location

Airport:

Trip Planner

Search our weather history database for the weather conditions in past years. The results will help you decide how hot, cold, wet, or windy it might be!

Date:

Astronomy

Feb. 15, 2013 Rise Set
Actual Time 7:08 AM EST 6:06 PM EST
Civil Twilight 6:42 AM EST 6:32 PM EST
Nautical Twilight 6:13 AM EST 7:02 PM EST
Astronomical Twilight 5:44 AM EST 7:31 PM EST
Moon 9:59 AM EST (2/15) 11:49 PM EST (2/15)
Length of Visible Light 11h 49m
Length of Day
10h 58m
Waxing Crescent, 30% of the Moon is Illuminated
Feb 15
Waxing Crescent
Feb 17
First Quarter
Feb 25
Full
Mar 4
Last Quarter
Mar 11
New

Hourly Weather History & Observations

Time (EST) Temp. Dew Point Humidity Pressure Visibility Wind Dir Wind Speed Gust Speed Precip Events Conditions
12:15 AM 32.0 °F 32.0 °F 100% 30.09 in 3.0 mi Calm Calm - N/A Rain Light Rain
12:35 AM 32.0 °F 32.0 °F 100% 30.08 in 4.0 mi Calm Calm - N/A Rain Light Rain
12:55 AM 30.2 °F 30.2 °F 100% 30.08 in 4.0 mi Calm Calm - N/A Rain Light Freezing Rain
1:15 AM 30.2 °F 30.2 °F 100% 30.08 in 4.0 mi Calm Calm - N/A Rain Light Freezing Rain
1:35 AM 30.2 °F 30.2 °F 100% 30.08 in 3.0 mi Calm Calm - N/A Rain Light Freezing Rain
1:55 AM 30.2 °F 30.2 °F 100% 30.08 in 4.0 mi Calm Calm - N/A Rain Light Freezing Rain
2:15 AM 30.2 °F 30.2 °F 100% 30.07 in 5.0 mi Calm Calm - N/A Rain Light Freezing Rain
2:35 AM 30.2 °F 30.2 °F 100% 30.07 in 5.0 mi Calm Calm - N/A Rain Light Freezing Rain
2:55 AM 28.4 °F 28.4 °F 100% 30.07 in 5.0 mi Calm Calm - N/A Rain Light Freezing Rain
3:15 AM 28.4 °F 28.4 °F 100% 30.07 in 5.0 mi Calm Calm - N/A Rain Light Freezing Rain
3:35 AM 28.4 °F 28.4 °F 100% 30.06 in 7.0 mi Calm Calm - N/A Rain Light Freezing Rain
3:55 AM 28.4 °F 28.4 °F 100% 30.07 in 8.0 mi Calm Calm - N/A Rain Light Freezing Rain
4:15 AM 28.4 °F 28.4 °F 100% 30.07 in 8.0 mi Calm Calm - N/A Rain Light Freezing Rain
4:35 AM 28.4 °F 28.4 °F 100% 30.06 in 9.0 mi Calm Calm - N/A Rain Light Freezing Rain
4:55 AM 28.4 °F 28.4 °F 100% 30.06 in 9.0 mi Calm Calm - N/A Rain Light Freezing Rain
5:15 AM 28.4 °F 28.4 °F 100% 30.07 in 10.0 mi Calm Calm - N/A Rain Light Freezing Rain
5:35 AM 28.4 °F 28.4 °F 100% 30.07 in 8.0 mi Calm Calm - N/A Rain Light Freezing Rain
6:15 AM 28.4 °F 28.4 °F 100% 30.08 in 10.0 mi Calm Calm - N/A Rain Light Freezing Rain
6:35 AM 28.4 °F 28.4 °F 100% 30.09 in 10.0 mi Calm Calm - N/A Rain Light Freezing Rain
6:55 AM 28.4 °F 28.4 °F 100% 30.09 in 10.0 mi Calm Calm - N/A   Clear
7:15 AM 26.6 °F 26.6 °F 100% 30.09 in 9.0 mi Calm Calm - N/A Rain Light Freezing Rain
7:35 AM 26.6 °F 26.6 °F 100% 30.10 in 9.0 mi Calm Calm - N/A Rain Light Freezing Rain
7:55 AM 28.4 °F 28.4 °F 100% 30.10 in 10.0 mi Calm Calm - N/A Rain Light Freezing Rain
8:15 AM 28.4 °F 28.4 °F 100% 30.10 in 9.0 mi Calm Calm - N/A Rain Light Freezing Rain
8:35 AM 30.2 °F 30.2 °F 100% 30.10 in 7.0 mi Calm Calm - N/A Rain Light Freezing Rain
8:55 AM 32.0 °F 32.0 °F 100% 30.10 in 5.0 mi Calm Calm - N/A Rain Light Rain
9:15 AM 37.4 °F 37.4 °F 100% 30.11 in 9.0 mi Calm Calm - N/A Rain Light Rain
9:35 AM 41.0 °F 41.0 °F 100% 30.11 in 10.0 mi Calm Calm - N/A   Clear
9:55 AM 44.6 °F 41.0 °F 87% 30.11 in 10.0 mi Calm Calm - N/A   Clear
10:15 AM 46.4 °F 41.0 °F 81% 30.10 in 10.0 mi Calm Calm - N/A   Clear
10:35 AM 50.0 °F 41.0 °F 71% 30.10 in 10.0 mi Calm Calm - N/A   Clear
10:55 AM 53.6 °F 37.4 °F 54% 30.09 in 10.0 mi Calm Calm - N/A   Clear
11:15 AM 55.4 °F 35.6 °F 47% 30.09 in 10.0 mi Calm Calm - N/A   Clear
11:35 AM 57.2 °F 33.8 °F 41% 30.09 in 10.0 mi SSW 3.5 mph - N/A   Clear
11:55 AM 59.0 °F 33.8 °F 39% 30.08 in 10.0 mi South 3.5 mph - N/A   Clear
12:15 PM 59.0 °F 32.0 °F 36% 30.08 in 10.0 mi SSW 4.6 mph - N/A   Clear
12:35 PM 59.0 °F 28.4 °F 31% 30.07 in 10.0 mi Calm Calm - N/A   Clear
12:55 PM 59.0 °F 28.4 °F 31% 30.06 in 10.0 mi SE 4.6 mph - N/A   Clear
1:15 PM 59.0 °F 28.4 °F 31% 30.04 in 10.0 mi South 3.5 mph - N/A   Clear
1:35 PM 60.8 °F 30.2 °F 31% 30.03 in 10.0 mi South 3.5 mph - N/A   Clear
2:15 PM 60.8 °F 28.4 °F 29% 30.01 in 10.0 mi SSE 4.6 mph - N/A   Clear
2:35 PM 62.6 °F 30.2 °F 30% 30.00 in 10.0 mi South 3.5 mph - N/A   Clear
2:55 PM 60.8 °F 28.4 °F 29% 29.99 in 10.0 mi Calm Calm - N/A   Clear
3:15 PM 62.6 °F 30.2 °F 30% 29.98 in 10.0 mi West 5.8 mph - N/A   Clear
3:35 PM 62.6 °F 28.4 °F 27% 29.97 in 10.0 mi West 8.1 mph - N/A   Clear
3:55 PM 62.6 °F 28.4 °F 27% 29.97 in 10.0 mi SW 9.2 mph - N/A   Clear
4:15 PM 60.8 °F 28.4 °F 29% 29.97 in 10.0 mi SSW 3.5 mph - N/A   Clear
4:35 PM 60.8 °F 28.4 °F 29% 29.97 in 10.0 mi West 6.9 mph - N/A   Clear
4:55 PM 60.8 °F 28.4 °F 29% 29.96 in 10.0 mi WSW 8.1 mph - N/A   Clear
5:15 PM 59.0 °F 28.4 °F 31% 29.96 in 10.0 mi SW 4.6 mph - N/A   Clear
5:35 PM 57.2 °F 32.0 °F 38% 29.95 in 10.0 mi Calm Calm - N/A   Clear
5:55 PM 55.4 °F 32.0 °F 41% 29.95 in 10.0 mi Calm Calm - N/A   Clear
6:15 PM 53.6 °F 33.8 °F 47% 29.96 in 10.0 mi Calm Calm - N/A   Clear
6:35 PM 48.2 °F 37.4 °F 66% 29.96 in 10.0 mi Calm Calm - N/A   Clear
6:55 PM 46.4 °F 37.4 °F 71% 29.96 in 10.0 mi Calm Calm - N/A   Clear
7:15 PM 44.6 °F 39.2 °F 81% 29.96 in 10.0 mi Calm Calm - N/A   Clear
7:35 PM 41.0 °F 37.4 °F 87% 29.97 in 10.0 mi Calm Calm - N/A   Clear
7:55 PM 41.0 °F 37.4 °F 87% 29.96 in 10.0 mi Calm Calm - N/A   Clear
8:15 PM 41.0 °F 37.4 °F 87% 29.96 in 10.0 mi Calm Calm - N/A   Clear
8:35 PM 39.2 °F 37.4 °F 93% 29.96 in 10.0 mi Calm Calm - N/A   Clear
8:55 PM 39.2 °F 37.4 °F 93% 29.96 in 10.0 mi Calm Calm - N/A   Clear
9:15 PM 37.4 °F 37.4 °F 100% 29.96 in 10.0 mi Calm Calm - N/A   Clear
9:35 PM 37.4 °F 37.4 °F 100% 29.96 in 10.0 mi Calm Calm - N/A   Clear
9:55 PM 37.4 °F 37.4 °F 100% 29.96 in 10.0 mi Calm Calm - N/A   Clear
10:15 PM 37.4 °F 37.4 °F 100% 29.96 in 10.0 mi Calm Calm - N/A   Clear
10:35 PM 37.4 °F 37.4 °F 100% 29.96 in 10.0 mi Calm Calm - N/A   Clear
10:55 PM 35.6 °F 35.6 °F 100% 29.96 in 10.0 mi Calm Calm - N/A   Clear
11:15 PM 35.6 °F 35.6 °F 100% 29.96 in 10.0 mi Calm Calm - N/A   Clear
11:35 PM 35.6 °F 35.6 °F 100% 29.96 in 10.0 mi Calm Calm - N/A   Clear
11:55 PM 35.6 °F 35.6 °F 100% 29.96 in 10.0 mi Calm Calm - N/A   Clear